Flag for U.S.A. Weather past 2 weeks in Monticello, Kentucky, U.S.A.

Now
85 °F

Scattered clouds.


Feels Like: 84 °F
Forecast: 67 / 86 °F
Wind: 13 mph from South

Location: London-Corbin Airport-Magee Field

Current Time: May 30, 2015 at 6:49:07 PM

Latest Report: May 30, 2015 at 5:53 PM


Visibility: 10 mi

Pressure: 30.01 "Hg

Humidity: 36%

Dew point: 55 °F

Location of MonticelloLocation

Historic Weather in Monticello — Graph

°F

Monticello temperature yesterday

Maximum temperature yesterday: 85 °F (at 5:53 PM)
Minimum temperature yesterday: 64 °F (at 4:53 AM)
Average temperature yesterday: 73 °F

Past Weeks' High & Low Weather Summary

 TemperatureHumidityPressure
High87 °F (May 26, 4:53 PM)90% (May 29, 4:53 AM)30.40 "Hg (May 29, 4:53 AM)
Low41 °F (May 22, 6:53 AM)24% (May 24, 3:53 PM)29.86 "Hg (May 21, 1:53 AM)
Average69 °F65%30.15 "Hg
* Reported May 15 4:53 PM — May 30 4:53 PM, Monticello, Weather by CustomWeather, © 2015

Note: Actual official high and low records may vary slightly from our data, if they occured in-between our weather recording intervals... More about our weather records

Advertising

Monticello weather history for previous 24 hours

 ConditionsComfort  
Time TempWeatherWind HumidityBarometerVisibility
4:53 PM
Sat, May 30
84 °FPassing clouds.10 mph37%30.02 "Hg10 mi
3:53 PM84 °FScattered clouds.12 mph40%30.04 "Hg10 mi
2:53 PM82 °FPassing clouds.8 mph44%30.06 "Hg10 mi
1:53 PM83 °FBroken clouds.10 mph44%30.09 "Hg10 mi
12:53 PM82 °FBroken clouds.10 mph46%30.11 "Hg10 mi
11:53 AM78 °FMostly cloudy.8 mph54%30.13 "Hg10 mi
10:53 AM77 °FPartly sunny.8 mph60%30.12 "Hg10 mi
9:53 AM74 °FPartly sunny.9 mph67%30.13 "Hg10 mi
8:53 AM70 °FLight rain. Mostly cloudy.6 mph81%30.14 "Hg9 mi
7:53 AM69 °FLight rain. Overcast.No wind81%30.13 "Hg10 mi
6:53 AM68 °FOvercast.No wind82%30.11 "Hg10 mi
5:53 AM68 °FOvercast.No wind82%30.10 "Hg10 mi
4:53 AM68 °FMostly cloudy.No wind82%30.09 "Hg10 mi
3:53 AM68 °FOvercast.No wind82%30.09 "Hg10 mi
2:53 AM67 °FOvercast.No wind85%30.10 "Hg10 mi
1:53 AM67 °FClear.No wind85%30.11 "Hg9 mi
12:53 AM68 °FClear.No wind84%30.11 "Hg9 mi
11:53 PM
Fri, May 29
68 °FClear.No wind84%30.12 "Hg8 mi
10:53 PM69 °FClear.No wind84%30.13 "Hg7 mi
9:53 PM70 °FPassing clouds.No wind84%30.11 "Hg10 mi
8:53 PM71 °FSunny.3 mph81%30.09 "Hg10 mi
7:53 PM73 °FThunderstorms. Partly sunny.10 mph66%30.11 "Hg5 mi
6:53 PM83 °FPartly sunny.3 mph48%30.08 "Hg10 mi
Weather by CustomWeather, © 2015

See weather overviewHow to use our weather pages